Location: Lichtensteig
(47.3376°N, 9.0841°E)
Time: 09:08:07
(UTC+00:00)

FENGYUN 1C DEB - Pass Details

Date: 19 September 2021
Orbit: 837 x 877 km, 98.7° (Epoch: 26 October)

Event Time Altitude Azimuth Distance (km) Brightness Sun altitude
Rises 19:06:20 0° 206° (SSW) 3,446 ? -17.2°
Reaches altitude 10° 19:09:19 10° 222° (SW) 2,519 ? -17.7°
Maximum altitude 19:13:26 21° 270° (W) 1,881 ? -18.3°
Drops below altitude 10° 19:17:36 10° 317° (NW) 2,541 ? -18.9°
Sets 19:20:39 0° 334° (NNW) 3,485 ? -19.4°
